Location: Eferding
(48.3167°N, 14.0167°E)
Time: 07:24:46
(UTC+00:00)

Okean O Rocket - Pass Details

Date: 12 November 2019
Orbit: 622 x 645 km, 98.2° (Epoch: 08 December)

Event Time Altitude Azimuth Distance (km) Brightness Sun altitude
Rises 16:27:50 0° 194° (SSW) 2,930 5.5 -9.9°
Reaches altitude 10° 16:30:19 10° 207° (SSW) 2,022 4.8 -10.3°
Maximum altitude 16:34:03 27° 265° (W) 1,232 4.1 -10.9°
Drops below altitude 10° 16:37:48 10° 324° (NW) 2,024 4.5 -11.5°
Sets 16:40:18 0° 336° (NNW) 2,933 5.2 -11.9°
